Location: Observatoire
(46.1952°N, 5.3391°E)
Time: 21:49:38
(UTC+01:00)

A-11 Canister half - Pass Details

Date: 17 February 2026
Orbit: 1525 x 1683 km, 47.3° (Epoch: 9 March)

Event Time Altitude Azimuth Distance (km) Brightness Sun altitude
Rises 20:29:22 0° 275° (W) 4,686 12.9 -25.1°
Reaches altitude 10° 20:32:25 10° 276° (W) 3,696 12.0 -25.7°
Maximum altitude 20:41:46 85° 6° (N) 1,535 8.8 -27.2°
Enters shadow 20:44:41 51° 91° (E) 1,867 9.0 -27.7°
Drops below altitude 10° 20:51:10 10° 96° (E) 3,722 - -28.8°
Sets 20:54:15 0° 97° (E) 4,721 - -29.4°
